Regional Weather Roundup
Issued by NWS

Home | Current Version | Previous Version | Graphics & Text | Print | Product List | Glossary Off
Versions: 1 2 3 4 5 6 7 8 9 10 11 12 13 14 15 16 17 18 19 20 21 22 23 24 25 26 27 28 29 30 31 32 33 34 35 36 37 38 39 40 41 42 43 44 45 46 47 48 49 50

000
ASUS43 KTOP 200208
RWRKS

WEATHER ROUNDUP FOR KANSAS
NATIONAL WEATHER SERVICE GOODLAND KS
900 PM CDT SAT APR 19 2014

NOTE:  "FAIR" INDICATES FEW OR NO CLOUDS BELOW 12,000 FEET WITH NO
SIGNIFICANT WEATHER AND/OR OBSTRUCTIONS TO VISIBILITY.

KSZ001>006-013>018-027>032-041>047-200300-
NORTHWEST KANSAS

CITY           SKY/WX    TMP DP  RH WIND       PRES   REMARKS
GOODLAND       CLOUDY    60  49  66 SE10      30.01R
HAYS           CLOUDY    72  48  43 S15       29.92R
HILL CITY      CLOUDY    72  48  42 N6        29.92R THUNDER
RUSSELL        MOCLDY    71  50  47 MISG      29.92S
$$

KSZ061>065-074>080-084>089-200300-
SOUTHWEST KANSAS

CITY           SKY/WX    TMP DP  RH WIND       PRES   REMARKS
DODGE CITY     MOCLDY    69  47  45 S13       29.97R
ELKHART          N/A     66  44  45 SW12        N/A
GARDEN CITY    CLOUDY    70  49  47 S12       29.96R
GREAT BEND     MOCLDY    70  50  49 S17       29.94R
LIBERAL        MOCLDY    68  46  45 S18       29.99R
PRATT          MOCLDY    70  46  43 S14       29.99R
$$

KSZ066>073-081>083-090>101-200300-
SOUTHEAST KANSAS

CITY           SKY/WX    TMP DP  RH WIND       PRES   REMARKS
CHANUTE        MOCLDY    64  45  49 SE8       30.08R
COFFEYVILLE    MOCLDY    67  47  48 SE9       30.08R
HUTCHINSON     PTCLDY    69  49  48 S15       30.00R
MEDICINE LODGE   N/A     70  51  51 S13G21    29.99R
NEWTON         PTCLDY    68  45  42 S14       30.05R
PARSONS        MOCLDY    68  45  43 SE6       30.09R
WICHITA INTL   PTCLDY    68  48  48 S13       30.02R
WICHITA JABRA  PTCLDY    70  49  47 S14       30.02R
WICHITA MCCONL PTCLDY    69  50  49 S15       30.03R
WINFIELD       PTCLDY    67  49  52 S9        30.05R
$$

KSZ007>012-019>026-033>040-048>060-102>105-200300-
NORTHEAST KANSAS

CITY           SKY/WX    TMP DP  RH WIND       PRES   REMARKS
CONCORDIA      CLEAR     71  50  47 S12       29.96R
EMPORIA        PTCLDY    65  45  48 SE12      30.04R
LAWRENCE       PTCLDY    63  46  54 SE8       30.06S
MANHATTAN      CLOUDY    72  45  37 SE13      30.00R
OLATHE IND     PTCLDY    62  43  49 S7        30.09R
OLATHE EXE     PTCLDY    64  45  49 S7        30.08R
SALINA         CLEAR     72  49  44 S12       29.98R
TOPEKA BILLARD PTCLDY    69  45  41 SE8       30.05R
TOPEKA FORBES  MOCLDY    66  44  45 SE8       30.05R
$$



USA.gov is the U.S. government's official web portal to all federal, state and local government web resources and services.